[[{"header":{"parameterUnit":"m.s-1","parameterCategory":1,"la1":30.2991,"la2":30.254,"lo1":-89.0895,"lo2":-89.0444,"dy":0.0017,"dx":0.0017,"nx":28,"ny":28,"refTime":"2025-06-18T03:00:00:Z","depth":0,"parameterNumber":2,"parameterNumberName":"U-component_of_WINDS"},"data":[0,0,0,0,0,0,0,0,0,0,0,0,0,0,0,0,0,0,0,0,0,0,0,0,0,0,0,0,0,0,0,0,0,0,0,0,0,0,0,0,0,0,0,0,0,0,0,0,0,0,0,0,0,0,0,0,0,0,0.5708,0.5708,0,0.5695,0.5695,0.5694,0.5658,0.5657,0.5656,0.5656,0.5642,0.5642,0.5643,0,0,0,0,0,0,0,0,0,0,0,0,0,0.57,0.5701,0.5708,0.5708,0.5708,0.5695,0.5695,0.5694,0.5658,0.5657,0.5656,0.5655,0.5642,0.5642,0.5643,0,0,0,0,0,0,0,0,0,0,0,0,0,0.5697,0.5701,0.5708,0.5688,0.5686,0.5695,0.5695,0.5694,0.5658,0.5657,0.5656,0.5655,0.5642,0.5642,0.5643,0.567,0,0,0.5645,0.5645,0,0,0,0,0,0,0,0,0.5697,0.5697,0.5691,0.5689,0.5687,0.5677,0.5687,0.5686,0.5659,0.5669,0.5656,0.5654,0.5655,0.5654,0.5654,0.5669,0.5669,0.5645,0.5645,0.5645,0.5645,0,0,0,0,0,0,0,0.5698,0.5698,0.5703,0.5691,0.5689,0.5679,0.5677,0.5687,0.5668,0.5668,0.5665,0.5664,0.5653,0.5654,0.5654,0.5669,0.5645,0.5645,0.5646,0.5646,0.5703,0.5704,0,0,0,0,0,0,0.5701,0.5698,0.5703,0.5702,0.5689,0.568,0.5678,0.5681,0.5668,0.5665,0.5665,0.5662,0.5653,0.5653,0.5653,0.5682,0.5645,0.5646,0.5646,0.5702,0.5703,0.5705,0,0,0,0,0,0,0.5701,0.5702,0.5704,0.5699,0.5699,0.5682,0.5685,0.5682,0.5682,0.5666,0.5663,0.5669,0.5652,0.5652,0.5665,0.5681,0.5646,0.5647,0.5701,0.5702,0.5704,0.5742,0,0,0,0,0,0,0.5701,0.5702,0.5712,0.57,0.5699,0.5717,0.5686,0.5682,0.5683,0.5679,0.5669,0.5666,0.5651,0.5665,0.5666,0.5681,0.5647,0.5699,0.5701,0.5704,0.5739,0.5745,0.5749,0,0,0,0,0,0.5701,0.5724,0.5713,0.5714,0.5712,0.5718,0.5718,0.57,0.5685,0.5694,0.5684,0.5666,0.568,0.5667,0.5668,0.5683,0.5698,0.5701,0.5703,0.5737,0.5743,0.5749,0,0,0,0,0,0,0.5739,0.5722,0.571,0.573,0.5726,0.5712,0.5724,0.5708,0.5709,0.5705,0.5684,0.5682,0.5698,0.5692,0.5678,0.5708,0.5686,0.5689,0.5711,0.5717,0.5722,0.5723,0.5647,0,0,0,0,0,0.575,0.5756,0.5741,0.576,0.5759,0.5742,0.5744,0.5731,0.5725,0.5723,0.5714,0.5709,0.5712,0.5714,0.5716,0.5738,0.5734,0.5749,0.5755,0.5759,0.5761,0.577,0.5776,0.5713,0.5713,0.5713,0,0,0.5772,0.5764,0.5769,0.5768,0.5763,0.5769,0.5741,0.5749,0.5753,0.5725,0.5736,0.5729,0.5722,0.574,0.5747,0.5735,0.5778,0.5762,0.5766,0.5766,0.5774,0.578,0.5785,0.5715,0.5715,0.5715,0,0,0.5816,0.5811,0.5825,0.5821,0.5813,0.5802,0.5805,0.5793,0.5787,0.5799,0.5777,0.5781,0.5787,0.5783,0.5781,0.5822,0.5805,0.5823,0.585,0.5859,0.5864,0.5868,0.5881,0.5886,0.5826,0.5826,0.5826,0,0.5845,0.5854,0.5835,0.5844,0.5843,0.5817,0.5831,0.5828,0.5821,0.5821,0.5809,0.5814,0.5808,0.5823,0.5832,0.5833,0.5835,0.5824,0.5865,0.5869,0.5872,0.5884,0.5889,0.5828,0.5828,0.5828,0.5827,0,0.5888,0.5895,0.5907,0.5901,0.5902,0.5913,0.5895,0.5898,0.5885,0.5875,0.5885,0.5877,0.5876,0.5879,0.5866,0.5891,0.5884,0.5869,0.5846,0.5881,0.5891,0.5896,0.5831,0.583,0.583,0.5829,0,0,0.5956,0.5938,0.5943,0.5939,0.5928,0.5932,0.5942,0.5941,0.5943,0.5939,0.5946,0.5951,0.5936,0.5934,0.5921,0.5929,0.5959,0.5912,0.5912,0.592,0.5984,0.5995,0.6,0.5948,0.5949,0.595,0.5984,0,0.5995,0.6011,0.5994,0.6012,0.6017,0.5992,0.6,0.5994,0.5985,0.5987,0.5976,0.5979,0.596,0.5958,0.5965,0.5954,0.5972,0.5952,0.5953,0.5953,0.5954,0.6006,0.6018,0.6051,0.5988,0.5989,0.599,0,0.6044,0.6041,0.606,0.6047,0.6048,0.6056,0.6052,0.6055,0.6047,0.6039,0.6037,0.602,0.6028,0.6007,0.6016,0.6003,0.6003,0.5997,0.5998,0.5996,0.5973,0.6004,0.6061,0.6065,0.5996,0.5996,0.5995,0,0.6089,0.6091,0.6101,0.6099,0.6084,0.609,0.6084,0.6075,0.6074,0.6071,0.607,0.6069,0.6067,0.6066,0.6049,0.6035,0.606,0.6038,0.6053,0.6053,0.6058,0.6058,0.6113,0.6061,0.606,0.606,0.606,0,0.6134,0.6146,0.6121,0.6128,0.614,0.612,0.6133,0.6124,0.6116,0.612,0.6099,0.6103,0.6082,0.6083,0.607,0.6079,0.6079,0.6072,0.6068,0.6073,0.6074,0.6072,0.6068,0.6062,0.6061,0.6061,0.6061,0,0.6186,0.617,0.618,0.6164,0.6161,0.617,0.6157,0.6162,0.6151,0.6156,0.6156,0.6138,0.6139,0.6122,0.612,0.6111,0.6125,0.6118,0.6127,0.6124,0.6139,0.6137,0.6195,0.62,0.6145,0.6146,0.6146,0,0.6215,0.6223,0.6208,0.6209,0.6204,0.6206,0.6205,0.6186,0.6186,0.6176,0.6182,0.6181,0.6179,0.6181,0.6168,0.6165,0.6157,0.6177,0.6156,0.616,0.6155,0.6154,0.6154,0.6181,0.6182,0.6182,0.6183,0,0.6267,0.6259,0.6258,0.6254,0.6254,0.625,0.6245,0.6247,0.6225,0.6226,0.6226,0.6225,0.6221,0.622,0.6215,0.6208,0.6191,0.6189,0.6192,0.6197,0.6201,0.6197,0.6137,0.6188,0.6187,0.6187,0.6187,0.6187,0.6307,0.6313,0.6303,0.6302,0.6296,0.6292,0.6295,0.6284,0.6283,0.6279,0.6268,0.6269,0.626,0.6251,0.6246,0.6246,0.6236,0.6241,0.6242,0.6243,0.6245,0.6202,0.6246,0.6245,0.6245,0.6245,0.6245,0,0.6357,0.6349,0.6349,0.6342,0.6341,0.6326,0.6319,0.6319,0.6321,0.6314,0.6312,0.6311,0.6309,0.6295,0.6292,0.6295,0.6287,0.6294,0.6293,0.6291,0.6255,0.6252,0.63,0.63,0.63,0.63,0.63,0.63,0.6383,0.6391,0.6381,0.6385,0.6377,0.6378,0.6375,0.637,0.6364,0.6364,0.6362,0.6353,0.6343,0.6338,0.6335,0.6331,0.633,0.634,0.6333,0.63,0.6294,0.6289,0.6286,0.634,0.634,0.6369,0.6369,0.6369]},{"header":{"parameterUnit":"m.s-1","parameterCategory":1,"la1":30.2991,"la2":30.254,"lo1":-89.0895,"lo2":-89.0444,"dy":0.0017,"dx":0.0017,"nx":28,"ny":28,"refTime":"2025-06-18T03:00:00:Z","depth":0,"parameterNumber":3,"parameterNumberName":"V-component_of_WINDS"},"data":[0,0,0,0,0,0,0,0,0,0,0,0,0,0,0,0,0,0,0,0,0,0,0,0,0,0,0,0,0,0,0,0,0,0,0,0,0,0,0,0,0,0,0,0,0,0,0,0,0,0,0,0,0,0,0,0,0,0,4.8724,4.8725,0,4.8862,4.8864,4.8865,4.8827,4.8825,4.8822,4.8819,4.8957,4.8963,4.8969,0,0,0,0,0,0,0,0,0,0,0,0,0,4.8421,4.8427,4.8723,4.8725,4.8727,4.8862,4.8864,4.8865,4.8828,4.8825,4.8821,4.8818,4.8955,4.8962,4.897,0,0,0,0,0,0,0,0,0,0,0,0,0,4.8555,4.8429,4.8723,4.8725,4.8726,4.8861,4.8864,4.8866,4.8829,4.8825,4.882,4.8816,4.8953,4.8962,4.8971,4.9112,0,0,4.9,4.9004,0,0,0,0,0,0,0,0,4.8548,4.8566,4.8723,4.8725,4.8727,4.8823,4.8807,4.8948,4.883,4.879,4.8819,4.8814,4.8916,4.8928,4.8963,4.9119,4.9124,4.9,4.9006,4.901,4.9013,0,0,0,0,0,0,0,4.8538,4.856,4.8778,4.8725,4.8727,4.8716,4.8731,4.8834,4.8874,4.8793,4.879,4.8808,4.8916,4.8954,4.8966,4.9126,4.9,4.9009,4.9014,4.9018,4.9402,4.9406,0,0,0,0,0,0,4.8528,4.8553,4.8774,4.8782,4.8625,4.8725,4.8741,4.8796,4.8873,4.8881,4.8811,4.8805,4.894,4.8955,4.897,4.9139,4.901,4.9019,4.9024,4.9397,4.9403,4.9407,0,0,0,0,0,0,4.8522,4.8548,4.8768,4.8667,4.8694,4.8735,4.8797,4.8801,4.8839,4.8887,4.8893,4.8843,4.8937,4.8957,4.9077,4.9143,4.9023,4.9032,4.9392,4.9399,4.9405,4.9478,0,0,0,0,0,0,4.8513,4.8546,4.8602,4.8669,4.87,4.8874,4.8801,4.8807,4.8856,4.885,4.8918,4.8925,4.8935,4.9063,4.9086,4.9154,4.9039,4.9386,4.9395,4.9403,4.9469,4.9486,4.95,0,0,0,0,0,4.8503,4.8617,4.8605,4.8632,4.877,4.8878,4.8896,4.8906,4.8862,4.8916,4.8946,4.8923,4.9132,4.9076,4.9101,4.9173,4.9382,4.9392,4.9402,4.9462,4.9483,4.95,0,0,0,0,0,0,4.8556,4.8625,4.8613,4.8752,4.881,4.8871,4.8941,4.8928,4.8998,4.8989,4.8997,4.9013,4.9135,4.9166,4.9101,4.9312,4.925,4.9266,4.9287,4.9307,4.9322,4.9311,4.9047,0,0,0,0,0,4.8584,4.8667,4.8723,4.884,4.8869,4.8901,4.8948,4.8951,4.901,4.9034,4.9073,4.913,4.9208,4.9259,4.9334,4.9474,4.9487,4.9535,4.9551,4.9563,4.9576,4.965,4.9672,4.9441,4.9441,4.9441,0,0,4.8642,4.869,4.8742,4.8852,4.8897,4.898,4.8921,4.9013,4.9075,4.9047,4.9162,4.9193,4.9257,4.9386,4.9445,4.9416,4.9643,4.9576,4.9586,4.9592,4.9663,4.9684,4.9704,4.9448,4.9447,4.9446,0,0,4.8791,4.8837,4.8939,4.8985,4.9053,4.9073,4.9097,4.9161,4.9181,4.9297,4.9277,4.9349,4.9485,4.953,4.9571,4.9736,4.9716,4.976,4.984,4.9911,4.993,4.9946,5.0002,5.0023,4.9773,4.9773,4.9773,0,4.8855,4.8983,4.8992,4.9086,4.9133,4.9113,4.9214,4.9258,4.9347,4.9379,4.9345,4.9513,4.9555,4.9694,4.9734,4.9768,4.9794,4.9752,4.9926,4.9943,4.9958,5.0012,5.0033,4.9778,4.9777,4.9777,4.9776,0,4.9056,4.9144,4.9218,4.9305,4.9361,4.9458,4.9481,4.9536,4.9533,4.9556,4.9672,4.9721,4.9805,4.9838,4.9837,4.9976,4.9955,4.9924,4.9862,4.9984,5.0035,5.0056,4.9785,4.9783,4.9781,4.978,0,0,4.9243,4.9333,4.936,4.9398,4.9472,4.9539,4.9634,4.9717,4.9762,4.9824,4.9902,5.0016,4.9987,5.0033,5.0037,5.01,5.0224,5.006,5.0062,5.0087,5.0378,5.04,5.0424,5.0212,5.0216,5.0219,5.0372,0,4.9397,4.9566,4.9576,4.9728,4.9808,4.9789,4.9871,4.9924,4.9947,5.0017,5.0042,5.0122,5.0078,5.0106,5.0168,5.0196,5.0282,5.0185,5.0282,5.0286,5.0266,5.0451,5.0475,5.0617,5.0392,5.0395,5.0398,0,4.96,4.9668,4.9828,4.9887,4.9921,4.9996,5.007,5.0139,5.0197,5.0209,5.026,5.0254,5.0349,5.0284,5.0414,5.0347,5.0387,5.0407,5.0413,5.0421,5.0348,5.0463,5.0663,5.0684,5.043,5.0427,5.0425,0,4.9717,4.9849,4.9961,4.9995,5.0068,5.012,5.0153,5.0207,5.0255,5.032,5.0351,5.0426,5.0466,5.0524,5.0537,5.0489,5.0665,5.0603,5.0676,5.0676,5.0713,5.0711,5.0922,5.0742,5.0742,5.0741,5.0741,0,4.9887,4.9985,5.0015,5.0083,5.0192,5.0202,5.0308,5.0337,5.0386,5.0458,5.0446,5.0514,5.0528,5.0598,5.0609,5.0713,5.0732,5.0743,5.0744,5.0743,5.0741,5.0769,5.0758,5.0747,5.0746,5.0745,5.0744,0,5.0037,5.0061,5.0181,5.0241,5.0258,5.0335,5.0384,5.0449,5.047,5.0562,5.0584,5.0617,5.0699,5.0718,5.0815,5.0822,5.0945,5.0937,5.0925,5.0924,5.0996,5.0988,5.1231,5.1262,5.1063,5.1065,5.1067,0,5.0143,5.0218,5.0285,5.0334,5.0369,5.0447,5.0495,5.0508,5.0559,5.063,5.0685,5.0766,5.0831,5.0962,5.0993,5.1067,5.106,5.114,5.1071,5.1067,5.1059,5.1054,5.106,5.1152,5.1155,5.1156,5.1158,0,5.0329,5.0336,5.0408,5.0484,5.0542,5.0602,5.0659,5.0699,5.0719,5.0776,5.086,5.091,5.1009,5.1088,5.1162,5.1193,5.1178,5.1179,5.12,5.1199,5.1188,5.1193,5.0959,5.1173,5.1172,5.1171,5.117,5.1169,5.0459,5.0524,5.0581,5.066,5.0704,5.0757,5.0821,5.085,5.092,5.1002,5.1005,5.1095,5.1149,5.1247,5.1282,5.1352,5.1327,5.1358,5.1365,5.1372,5.1377,5.1178,5.1366,5.1365,5.1365,5.1364,5.1364,0,5.0642,5.0677,5.0751,5.0831,5.0892,5.0874,5.0936,5.0988,5.1068,5.1121,5.1185,5.1279,5.1356,5.1393,5.1468,5.1516,5.1511,5.1535,5.1531,5.1538,5.1396,5.137,5.1538,5.1538,5.1538,5.1538,5.1538,5.1538,5.0744,5.0852,5.0867,5.0995,5.1029,5.1119,5.1155,5.1203,5.1245,5.1352,5.1415,5.1439,5.1485,5.1563,5.1631,5.1639,5.1667,5.1694,5.1699,5.1566,5.1548,5.1531,5.1507,5.17,5.1701,5.1835,5.1836,5.1837]}]]